Year,Month,Day,Hour,Minute,Value (Times are PST for barometer in hPa)
2016,03,06,00,00,985.61
2016,03,06,00,01,985.64
2016,03,06,00,02,985.64
2016,03,06,00,03,985.58
2016,03,06,00,04,985.64
2016,03,06,00,05,985.68
2016,03,06,00,06,985.75
2016,03,06,00,07,985.81
2016,03,06,00,08,985.78
2016,03,06,00,09,985.78
2016,03,06,00,10,985.81
2016,03,06,00,11,985.85
2016,03,06,00,12,985.85
2016,03,06,00,13,985.88
2016,03,06,00,14,985.88
2016,03,06,00,15,985.91
2016,03,06,00,16,985.91
2016,03,06,00,17,985.91
2016,03,06,00,18,985.85
2016,03,06,00,19,985.85
2016,03,06,00,20,985.85
2016,03,06,00,21,985.85
2016,03,06,00,22,985.81
2016,03,06,00,23,985.81
2016,03,06,00,24,985.81
2016,03,06,00,25,985.85
2016,03,06,00,26,985.85
2016,03,06,00,27,985.91
2016,03,06,00,28,985.88
2016,03,06,00,29,985.91
2016,03,06,00,30,985.88
2016,03,06,00,31,985.86
2016,03,06,00,32,985.91
2016,03,06,00,33,985.95
2016,03,06,00,34,985.95
2016,03,06,00,35,985.91
2016,03,06,00,36,985.95
2016,03,06,00,37,985.98
2016,03,06,00,38,985.99
2016,03,06,00,39,986.08
2016,03,06,00,40,986.05
2016,03,06,00,41,986.08
2016,03,06,00,42,986.12
2016,03,06,00,43,986.15
2016,03,06,00,44,986.18
2016,03,06,00,45,986.18
2016,03,06,00,46,986.18
2016,03,06,00,47,986.21
2016,03,06,00,48,986.15
2016,03,06,00,49,986.12
2016,03,06,00,50,986.16
2016,03,06,00,51,986.23
2016,03,06,00,52,986.28
2016,03,06,00,53,986.18
2016,03,06,00,54,986.15
2016,03,06,00,55,986.07
2016,03,06,00,56,985.95
2016,03,06,00,57,985.95
2016,03,06,00,58,986.03
2016,03,06,00,59,986.12
2016,03,06,01,00,986.08
2016,03,06,01,01,986.15
2016,03,06,01,02,986.15
2016,03,06,01,03,986.17
2016,03,06,01,04,986.08
2016,03,06,01,05,985.97
2016,03,06,01,06,985.88
2016,03,06,01,07,985.88
2016,03,06,01,08,985.88
2016,03,06,01,09,985.87
2016,03,06,01,10,985.78
2016,03,06,01,11,985.71
2016,03,06,01,12,985.67
2016,03,06,01,13,985.57
2016,03,06,01,14,985.61
2016,03,06,01,15,985.68
2016,03,06,01,16,985.68
2016,03,06,01,17,985.64
2016,03,06,01,18,985.64
2016,03,06,01,19,985.61
2016,03,06,01,20,985.61
2016,03,06,01,21,985.62
2016,03,06,01,22,985.71
2016,03,06,01,23,985.71
2016,03,06,01,24,985.64
2016,03,06,01,25,985.54
2016,03,06,01,26,985.54
2016,03,06,01,27,985.51
2016,03,06,01,28,985.51
2016,03,06,01,29,985.47
2016,03,06,01,30,985.41
2016,03,06,01,31,985.44
2016,03,06,01,32,985.37
2016,03,06,01,33,985.35
2016,03,06,01,34,985.54
2016,03,06,01,35,985.62
2016,03,06,01,36,985.72
2016,03,06,01,37,985.82
2016,03,06,01,38,985.95
2016,03,06,01,39,986.03
2016,03,06,01,40,986.12
2016,03,06,01,41,986.23
2016,03,06,01,42,986.36
2016,03,06,01,43,986.60
2016,03,06,01,44,986.66
2016,03,06,01,45,986.62
2016,03,06,01,46,986.62
2016,03,06,01,47,986.66
2016,03,06,01,48,986.61
2016,03,06,01,49,986.47
2016,03,06,01,50,986.77
2016,03,06,01,51,986.91
2016,03,06,01,52,987.10
2016,03,06,01,53,987.17
2016,03,06,01,54,987.16
2016,03,06,01,55,987.03
2016,03,06,01,56,987.13
2016,03,06,01,57,987.13
2016,03,06,01,58,987.10
2016,03,06,01,59,987.04
2016,03,06,02,00,987.10
2016,03,06,02,01,987.00
2016,03,06,02,02,986.96
2016,03,06,02,03,987.03
2016,03,06,02,04,987.10
2016,03,06,02,05,987.10
2016,03,06,02,06,987.14
2016,03,06,02,07,987.23
2016,03,06,02,08,987.34
2016,03,06,02,09,987.37
2016,03,06,02,10,987.30
2016,03,06,02,11,987.23
2016,03,06,02,12,987.23
2016,03,06,02,13,987.30
2016,03,06,02,14,987.30
2016,03,06,02,15,987.27
2016,03,06,02,16,987.20
2016,03,06,02,17,987.20
2016,03,06,02,18,987.20
2016,03,06,02,19,987.20
2016,03,06,02,20,987.16
2016,03,06,02,21,987.09
2016,03,06,02,22,986.96
2016,03,06,02,23,986.89
2016,03,06,02,24,986.83
2016,03,06,02,25,986.83
2016,03,06,02,26,986.90
2016,03,06,02,27,986.96
2016,03,06,02,28,986.96
2016,03,06,02,29,987.00
2016,03,06,02,30,987.03
2016,03,06,02,31,987.13
2016,03,06,02,32,987.10
2016,03,06,02,33,987.20
2016,03,06,02,34,987.23
2016,03,06,02,35,987.34
2016,03,06,02,36,987.36
2016,03,06,02,37,987.27
2016,03,06,02,38,987.27
2016,03,06,02,39,987.27
2016,03,06,02,40,987.23
2016,03,06,02,41,987.20
2016,03,06,02,42,987.27
2016,03,06,02,43,987.27
2016,03,06,02,44,987.30
2016,03,06,02,45,987.34
2016,03,06,02,46,987.29
2016,03,06,02,47,987.17
2016,03,06,02,48,987.13
2016,03,06,02,49,987.20
2016,03,06,02,50,987.13
2016,03,06,02,51,987.19
2016,03,06,02,52,987.03
2016,03,06,02,53,987.10
2016,03,06,02,54,987.12
2016,03,06,02,55,987.03
2016,03,06,02,56,987.03
2016,03,06,02,57,987.03
2016,03,06,02,58,987.10
2016,03,06,02,59,987.03
2016,03,06,03,00,987.00
2016,03,06,03,01,986.93
2016,03,06,03,02,986.93
2016,03,06,03,03,986.97
2016,03,06,03,04,987.06
2016,03,06,03,05,987.11
2016,03,06,03,06,987.20
2016,03,06,03,07,987.27
2016,03,06,03,08,987.23
2016,03,06,03,09,987.27
2016,03,06,03,10,987.27
2016,03,06,03,11,987.27
2016,03,06,03,12,987.27
2016,03,06,03,13,987.30
2016,03,06,03,14,987.40
2016,03,06,03,15,987.41
2016,03,06,03,16,987.51
2016,03,06,03,17,987.51
2016,03,06,03,18,987.54
2016,03,06,03,19,987.54
2016,03,06,03,20,987.61
2016,03,06,03,21,987.61
2016,03,06,03,22,987.61
2016,03,06,03,23,987.61
2016,03,06,03,24,987.64
2016,03,06,03,25,987.67
2016,03,06,03,26,987.67
2016,03,06,03,27,987.64
2016,03,06,03,28,987.67
2016,03,06,03,29,987.74
2016,03,06,03,30,987.74
2016,03,06,03,31,987.71
2016,03,06,03,32,987.67
2016,03,06,03,33,987.71
2016,03,06,03,34,987.78
2016,03,06,03,35,987.74
2016,03,06,03,36,987.81
2016,03,06,03,37,987.74
2016,03,06,03,38,987.78
2016,03,06,03,39,987.78
2016,03,06,03,40,987.89
2016,03,06,03,41,988.00
2016,03,06,03,42,987.85
2016,03,06,03,43,987.95
2016,03,06,03,44,988.01
2016,03,06,03,45,988.09
2016,03,06,03,46,988.22
2016,03,06,03,47,988.18
2016,03,06,03,48,988.25
2016,03,06,03,49,988.24
2016,03,06,03,50,988.08
2016,03,06,03,51,988.15
2016,03,06,03,52,988.15
2016,03,06,03,53,988.18
2016,03,06,03,54,988.28
2016,03,06,03,55,988.34
2016,03,06,03,56,988.25
2016,03,06,03,57,988.32
2016,03,06,03,58,988.35
2016,03,06,03,59,988.35
2016,03,06,04,00,988.34
2016,03,06,04,01,988.25
2016,03,06,04,02,988.29
2016,03,06,04,03,988.39
2016,03,06,04,04,988.43
2016,03,06,04,05,988.56
2016,03,06,04,06,988.70
2016,03,06,04,07,988.79
2016,03,06,04,08,988.89
2016,03,06,04,09,988.96
2016,03,06,04,10,989.03
2016,03,06,04,11,989.10
2016,03,06,04,12,989.16
2016,03,06,04,13,989.20
2016,03,06,04,14,989.13
2016,03,06,04,15,989.20
2016,03,06,04,16,989.23
2016,03,06,04,17,989.28
2016,03,06,04,18,989.44
2016,03,06,04,19,989.47
2016,03,06,04,20,989.57
2016,03,06,04,21,989.60
2016,03,06,04,22,989.68
2016,03,06,04,23,989.89
2016,03,06,04,24,990.01
2016,03,06,04,25,990.04
2016,03,06,04,26,990.04
2016,03,06,04,27,990.03
2016,03,06,04,28,989.91
2016,03,06,04,29,989.81
2016,03,06,04,30,989.82
2016,03,06,04,31,989.91
2016,03,06,04,32,989.94
2016,03,06,04,33,990.02
2016,03,06,04,34,990.18
2016,03,06,04,35,990.28
2016,03,06,04,36,990.32
2016,03,06,04,37,990.35
2016,03,06,04,38,990.45
2016,03,06,04,39,990.52
2016,03,06,04,40,990.55
2016,03,06,04,41,990.59
2016,03,06,04,42,990.59
2016,03,06,04,43,990.62
2016,03,06,04,44,990.70
2016,03,06,04,45,990.79
2016,03,06,04,46,990.76
2016,03,06,04,47,990.72
2016,03,06,04,48,990.72
2016,03,06,04,49,990.76
2016,03,06,04,50,990.79
2016,03,06,04,51,990.86
2016,03,06,04,52,990.93
2016,03,06,04,53,990.99
2016,03,06,04,54,990.96
2016,03,06,04,55,990.93
2016,03,06,04,56,990.93
2016,03,06,04,57,990.89
2016,03,06,04,58,990.86
2016,03,06,04,59,990.79
2016,03,06,05,00,990.72
2016,03,06,05,01,990.70
2016,03,06,05,02,990.79
2016,03,06,05,03,990.76
2016,03,06,05,04,990.82
2016,03,06,05,05,990.82
2016,03,06,05,06,990.82
2016,03,06,05,07,990.86
2016,03,06,05,08,990.86
2016,03,06,05,09,990.83
2016,03,06,05,10,990.93
2016,03,06,05,11,990.89
2016,03,06,05,12,990.96
2016,03,06,05,13,991.03
2016,03,06,05,14,991.03
2016,03,06,05,15,991.09
2016,03,06,05,16,991.13
2016,03,06,05,17,991.09
2016,03,06,05,18,991.09
2016,03,06,05,19,991.06
2016,03,06,05,20,991.09
2016,03,06,05,21,991.03
2016,03,06,05,22,991.06
2016,03,06,05,23,991.03
2016,03,06,05,24,991.03
2016,03,06,05,25,991.09
2016,03,06,05,26,991.09
2016,03,06,05,27,991.13
2016,03,06,05,28,991.09
2016,03,06,05,29,991.13
2016,03,06,05,30,991.21
2016,03,06,05,31,991.30
2016,03,06,05,32,991.41
2016,03,06,05,33,991.50
2016,03,06,05,34,991.50
2016,03,06,05,35,991.53
2016,03,06,05,36,991.65
2016,03,06,05,37,991.74
2016,03,06,05,38,991.77
2016,03,06,05,39,991.81
2016,03,06,05,40,991.87
2016,03,06,05,41,991.84
2016,03,06,05,42,991.85
2016,03,06,05,43,991.98
2016,03,06,05,44,992.01
2016,03,06,05,45,992.04
2016,03,06,05,46,992.14
2016,03,06,05,47,992.18
2016,03,06,05,48,992.15
2016,03,06,05,49,992.25
2016,03,06,05,50,992.28
2016,03,06,05,51,992.31
2016,03,06,05,52,992.38
2016,03,06,05,53,992.45
2016,03,06,05,54,992.58
2016,03,06,05,55,992.55
2016,03,06,05,56,992.62
2016,03,06,05,57,992.55
2016,03,06,05,58,992.58
2016,03,06,05,59,992.62
2016,03,06,06,00,992.65
2016,03,06,06,01,992.65
2016,03,06,06,02,992.69
2016,03,06,06,03,992.69
2016,03,06,06,04,992.69
2016,03,06,06,05,992.72
2016,03,06,06,06,992.72
2016,03,06,06,07,992.72
2016,03,06,06,08,992.75
2016,03,06,06,09,992.79
2016,03,06,06,10,992.82
2016,03,06,06,11,992.82
2016,03,06,06,12,992.92
2016,03,06,06,13,992.99
2016,03,06,06,14,993.03
2016,03,06,06,15,992.99
2016,03,06,06,16,993.09
2016,03,06,06,17,993.09
2016,03,06,06,18,993.09
2016,03,06,06,19,993.03
2016,03,06,06,20,993.09
2016,03,06,06,21,993.06
2016,03,06,06,22,993.07
2016,03,06,06,23,993.16
2016,03,06,06,24,993.13
2016,03,06,06,25,993.06
2016,03,06,06,26,993.13
2016,03,06,06,27,993.16
2016,03,06,06,28,993.16
2016,03,06,06,29,993.16
2016,03,06,06,30,993.19
2016,03,06,06,31,993.16
2016,03,06,06,32,993.23
2016,03,06,06,33,993.33
2016,03,06,06,34,993.33
2016,03,06,06,35,993.40
2016,03,06,06,36,993.47
2016,03,06,06,37,993.60
2016,03,06,06,38,993.63
2016,03,06,06,39,993.63
2016,03,06,06,40,993.70
2016,03,06,06,41,993.71
2016,03,06,06,42,993.80
2016,03,06,06,43,993.94
2016,03,06,06,44,993.97
2016,03,06,06,45,994.04
2016,03,06,06,46,993.97
2016,03,06,06,47,993.97
2016,03,06,06,48,993.97
2016,03,06,06,49,993.94
2016,03,06,06,50,993.97
2016,03,06,06,51,993.94
2016,03,06,06,52,993.91
2016,03,06,06,53,993.94
2016,03,06,06,54,993.84
2016,03,06,06,55,993.87
2016,03,06,06,56,993.87
2016,03,06,06,57,993.84
2016,03,06,06,58,993.87
2016,03,06,06,59,993.91
2016,03,06,07,00,993.87
2016,03,06,07,01,993.84
2016,03,06,07,02,993.84
2016,03,06,07,03,993.80
2016,03,06,07,04,993.77
2016,03,06,07,05,993.77
2016,03,06,07,06,993.80
2016,03,06,07,07,993.80
2016,03,06,07,08,993.80
2016,03,06,07,09,993.80
2016,03,06,07,10,993.77
2016,03,06,07,11,993.77
2016,03,06,07,12,993.80
2016,03,06,07,13,993.77
2016,03,06,07,14,993.87
2016,03,06,07,15,993.91
2016,03,06,07,16,993.91
2016,03,06,07,17,993.94
2016,03,06,07,18,993.91
2016,03,06,07,19,993.94
2016,03,06,07,20,994.01
2016,03,06,07,21,993.94
2016,03,06,07,22,994.01
2016,03,06,07,23,994.01
2016,03,06,07,24,994.04
2016,03,06,07,25,994.21
2016,03,06,07,26,994.24
2016,03,06,07,27,994.18
2016,03,06,07,28,994.14
2016,03,06,07,29,994.14
2016,03,06,07,30,994.21
2016,03,06,07,31,994.24
2016,03,06,07,32,994.21
2016,03,06,07,33,994.18
2016,03,06,07,34,994.11
2016,03,06,07,35,994.07
2016,03,06,07,36,994.11
2016,03,06,07,37,994.14
2016,03,06,07,38,994.28
2016,03,06,07,39,994.35
2016,03,06,07,40,994.35
2016,03,06,07,41,994.38
2016,03,06,07,42,994.38
2016,03,06,07,43,994.46
2016,03,06,07,44,994.55
2016,03,06,07,45,994.58
2016,03,06,07,46,994.62
2016,03,06,07,47,994.58
2016,03,06,07,48,994.62
2016,03,06,07,49,994.65
2016,03,06,07,50,994.72
2016,03,06,07,51,994.75
2016,03,06,07,52,994.82
2016,03,06,07,53,994.79
2016,03,06,07,54,994.82
2016,03,06,07,55,994.89
2016,03,06,07,56,994.92
2016,03,06,07,57,994.92
2016,03,06,07,58,994.99
2016,03,06,07,59,994.99
2016,03,06,08,00,995.06
2016,03,06,08,01,995.16
2016,03,06,08,02,995.19
2016,03,06,08,03,995.23
2016,03,06,08,04,995.26
2016,03,06,08,05,995.26
2016,03,06,08,06,995.26
2016,03,06,08,07,995.29
2016,03,06,08,08,995.29
2016,03,06,08,09,995.33
2016,03,06,08,10,995.33
2016,03,06,08,11,995.33
2016,03,06,08,12,995.33
2016,03,06,08,13,995.43
2016,03,06,08,14,995.46
2016,03,06,08,15,995.46
2016,03,06,08,16,995.50
2016,03,06,08,17,995.53
2016,03,06,08,18,995.56
2016,03,06,08,19,995.56
2016,03,06,08,20,995.60
2016,03,06,08,21,995.53
2016,03,06,08,22,995.50
2016,03,06,08,23,995.50
2016,03,06,08,24,995.50
2016,03,06,08,25,995.46
2016,03,06,08,26,995.50
2016,03,06,08,27,995.43
2016,03,06,08,28,995.43
2016,03,06,08,29,995.40
2016,03,06,08,30,995.43
2016,03,06,08,31,995.46
2016,03,06,08,32,995.43
2016,03,06,08,33,995.36
2016,03,06,08,34,995.29
2016,03,06,08,35,995.23
2016,03,06,08,36,995.16
2016,03,06,08,37,995.16
2016,03,06,08,38,995.16
2016,03,06,08,39,995.12
2016,03,06,08,40,995.12
2016,03,06,08,41,995.19
2016,03,06,08,42,995.23
2016,03,06,08,43,995.33
2016,03,06,08,44,995.40
2016,03,06,08,45,995.46
2016,03,06,08,46,995.53
2016,03,06,08,47,995.53
2016,03,06,08,48,995.53
2016,03,06,08,49,995.56
2016,03,06,08,50,995.60
2016,03,06,08,51,995.56
2016,03,06,08,52,995.63
2016,03,06,08,53,995.67
2016,03,06,08,54,995.70
2016,03,06,08,55,995.73
2016,03,06,08,56,995.77
2016,03,06,08,57,995.80
2016,03,06,08,58,995.80
2016,03,06,08,59,995.77
2016,03,06,09,00,995.77
2016,03,06,09,01,995.80
2016,03,06,09,02,995.84
2016,03,06,09,03,995.84
2016,03,06,09,04,995.87
2016,03,06,09,05,995.87
2016,03,06,09,06,995.97
2016,03,06,09,07,996.01
2016,03,06,09,08,996.01
2016,03,06,09,09,996.04
2016,03,06,09,10,996.04
2016,03,06,09,11,996.04
2016,03,06,09,12,996.01
2016,03,06,09,13,995.94
2016,03,06,09,14,995.97
2016,03,06,09,15,995.94
2016,03,06,09,16,995.97
2016,03,06,09,17,995.97
2016,03,06,09,18,996.01
2016,03,06,09,19,996.01
2016,03,06,09,20,995.97
2016,03,06,09,21,995.97
2016,03,06,09,22,995.90
2016,03,06,09,23,995.94
2016,03,06,09,24,996.01
2016,03,06,09,25,996.07
2016,03,06,09,26,996.04
2016,03,06,09,27,996.11
2016,03,06,09,28,996.14
2016,03,06,09,29,996.17
2016,03,06,09,30,996.17
2016,03,06,09,31,996.21
2016,03,06,09,32,996.21
2016,03,06,09,33,996.31
2016,03,06,09,34,996.34
2016,03,06,09,35,996.31
2016,03,06,09,36,996.34
2016,03,06,09,37,996.34
2016,03,06,09,38,996.34
2016,03,06,09,39,996.38
2016,03,06,09,40,996.41
2016,03,06,09,41,996.45
2016,03,06,09,42,996.48
2016,03,06,09,43,996.51
2016,03,06,09,44,996.51
2016,03,06,09,45,996.48
2016,03,06,09,46,996.51
2016,03,06,09,47,996.51
2016,03,06,09,48,996.55
2016,03,06,09,49,996.51
2016,03,06,09,50,996.51
2016,03,06,09,51,996.55
2016,03,06,09,52,996.58
2016,03,06,09,53,996.55
2016,03,06,09,54,996.61
2016,03,06,09,55,996.58
2016,03,06,09,56,996.58
2016,03,06,09,57,996.58
2016,03,06,09,58,996.51
2016,03,06,09,59,996.55
2016,03,06,10,00,996.51
2016,03,06,10,01,996.55
2016,03,06,10,02,996.51
2016,03,06,10,03,996.51
2016,03,06,10,04,996.51
2016,03,06,10,05,996.51
2016,03,06,10,06,996.48
2016,03,06,10,07,996.48
2016,03,06,10,08,996.45
2016,03,06,10,09,996.45
2016,03,06,10,10,996.38
2016,03,06,10,11,996.41
2016,03,06,10,12,996.38
2016,03,06,10,13,996.34
2016,03,06,10,14,996.38
2016,03,06,10,15,996.34
2016,03,06,10,16,996.31
2016,03,06,10,17,996.28
2016,03,06,10,18,996.28
2016,03,06,10,19,996.28
2016,03,06,10,20,996.21
2016,03,06,10,21,996.21
2016,03,06,10,22,996.17
2016,03,06,10,23,996.11
2016,03,06,10,24,996.11
2016,03,06,10,25,996.04
2016,03,06,10,26,996.04
2016,03,06,10,27,996.07
2016,03,06,10,28,996.01
2016,03,06,10,29,996.01
2016,03,06,10,30,996.04
2016,03,06,10,31,996.14
2016,03,06,10,32,996.14
2016,03,06,10,33,996.14
2016,03,06,10,34,996.21
2016,03,06,10,35,996.17
2016,03,06,10,36,996.21
2016,03,06,10,37,996.21
2016,03,06,10,38,996.24
2016,03,06,10,39,996.24
2016,03,06,10,40,996.21
2016,03,06,10,41,996.24
2016,03,06,10,42,996.24
2016,03,06,10,43,996.24
2016,03,06,10,44,996.28
2016,03,06,10,45,996.31
2016,03,06,10,46,996.38
2016,03,06,10,47,996.45
2016,03,06,10,48,996.48
2016,03,06,10,49,996.48
2016,03,06,10,50,996.48
2016,03,06,10,51,996.48
2016,03,06,10,52,996.55
2016,03,06,10,53,996.72
2016,03,06,10,54,996.72
2016,03,06,10,55,996.75
2016,03,06,10,56,996.82
2016,03,06,10,57,996.82
2016,03,06,10,58,996.85
2016,03,06,10,59,996.82
2016,03,06,11,00,996.85
2016,03,06,11,01,996.85
2016,03,06,11,02,996.92
2016,03,06,11,03,996.92
2016,03,06,11,04,996.92
2016,03,06,11,05,996.99
2016,03,06,11,06,996.95
2016,03,06,11,07,996.99
2016,03,06,11,08,997.02
2016,03,06,11,09,997.05
2016,03,06,11,10,997.05
2016,03,06,11,11,996.99
2016,03,06,11,12,997.02
2016,03,06,11,13,997.02
2016,03,06,11,14,997.02
2016,03,06,11,15,997.02
2016,03,06,11,16,997.05
2016,03,06,11,17,997.05
2016,03,06,11,18,996.99
2016,03,06,11,19,996.99
2016,03,06,11,20,996.95
2016,03,06,11,21,996.95
2016,03,06,11,22,996.99
2016,03,06,11,23,997.05
2016,03,06,11,24,997.05
2016,03,06,11,25,997.09
2016,03,06,11,26,997.12
2016,03,06,11,27,997.09
2016,03,06,11,28,997.12
2016,03,06,11,29,997.05
2016,03,06,11,30,997.09
2016,03,06,11,31,997.12
2016,03,06,11,32,997.09
2016,03,06,11,33,997.12
2016,03,06,11,34,997.09
2016,03,06,11,35,997.09
2016,03,06,11,36,997.12
2016,03,06,11,37,997.09
2016,03,06,11,38,997.05
2016,03,06,11,39,997.05
2016,03,06,11,40,997.05
2016,03,06,11,41,997.09
2016,03,06,11,42,997.09
2016,03,06,11,43,997.12
2016,03,06,11,44,997.12
2016,03,06,11,45,997.12
2016,03,06,11,46,997.16
2016,03,06,11,47,997.19
2016,03,06,11,48,997.22
2016,03,06,11,49,997.26
2016,03,06,11,50,997.19
2016,03,06,11,51,997.26
2016,03,06,11,52,997.26
2016,03,06,11,53,997.26
2016,03,06,11,54,997.26
2016,03,06,11,55,997.26
2016,03,06,11,56,997.29
2016,03,06,11,57,997.26
2016,03,06,11,58,997.26
2016,03,06,11,59,997.26
2016,03,06,12,00,997.29
2016,03,06,12,01,997.29
2016,03,06,12,02,997.22
2016,03,06,12,03,997.33
2016,03,06,12,04,997.29
2016,03,06,12,05,997.29
2016,03,06,12,06,997.29
2016,03,06,12,07,997.33
2016,03,06,12,08,997.36
2016,03,06,12,09,997.36
2016,03,06,12,10,997.36
2016,03,06,12,11,997.39
2016,03,06,12,12,997.43
2016,03,06,12,13,997.43
2016,03,06,12,14,997.46
2016,03,06,12,15,997.50
2016,03,06,12,16,997.46
2016,03,06,12,17,997.46
2016,03,06,12,18,997.56
2016,03,06,12,19,997.50
2016,03,06,12,20,997.53
2016,03,06,12,21,997.53
2016,03,06,12,22,997.53
2016,03,06,12,23,997.53
2016,03,06,12,24,997.56
2016,03,06,12,25,997.63
2016,03,06,12,26,997.63
2016,03,06,12,27,997.77
2016,03,06,12,28,997.80
2016,03,06,12,29,997.83
2016,03,06,12,30,997.87
2016,03,06,12,31,997.94
2016,03,06,12,32,997.97
2016,03,06,12,33,997.90
2016,03,06,12,34,997.87
2016,03,06,12,35,997.87
2016,03,06,12,36,997.87
2016,03,06,12,37,997.83
2016,03,06,12,38,997.87
2016,03,06,12,39,997.94
2016,03,06,12,40,997.94
2016,03,06,12,41,997.94
2016,03,06,12,42,997.94
2016,03,06,12,43,997.94
2016,03,06,12,44,998.00
2016,03,06,12,45,998.04
2016,03,06,12,46,997.97
2016,03,06,12,47,998.04
2016,03,06,12,48,998.00
2016,03,06,12,49,998.04
2016,03,06,12,50,998.04
2016,03,06,12,51,998.07
2016,03,06,12,52,998.04
2016,03,06,12,53,998.00
2016,03,06,12,54,998.04
2016,03,06,12,55,998.04
2016,03,06,12,56,998.04
2016,03,06,12,57,998.04
2016,03,06,12,58,998.07
2016,03,06,12,59,998.14
2016,03,06,13,00,998.14
2016,03,06,13,01,998.21
2016,03,06,13,02,998.21
2016,03,06,13,03,998.17
2016,03,06,13,04,998.17
2016,03,06,13,05,998.14
2016,03,06,13,06,998.14
2016,03,06,13,07,998.14
2016,03,06,13,08,998.14
2016,03,06,13,09,998.14
2016,03,06,13,10,998.07
2016,03,06,13,11,998.07
2016,03,06,13,12,998.07
2016,03,06,13,13,998.10
2016,03,06,13,14,998.04
2016,03,06,13,15,998.04
2016,03,06,13,16,998.04
2016,03,06,13,17,998.00
2016,03,06,13,18,998.04
2016,03,06,13,19,997.97
2016,03,06,13,20,998.04
2016,03,06,13,21,998.04
2016,03,06,13,22,998.07
2016,03,06,13,23,998.04
2016,03,06,13,24,998.04
2016,03,06,13,25,998.07
2016,03,06,13,26,998.14
2016,03,06,13,27,998.14
2016,03,06,13,28,998.14
2016,03,06,13,29,998.21
2016,03,06,13,30,998.21
2016,03,06,13,31,998.27
2016,03,06,13,32,998.24
2016,03,06,13,33,998.21
2016,03,06,13,34,998.17
2016,03,06,13,35,998.17
2016,03,06,13,36,998.14
2016,03,06,13,37,998.14
2016,03,06,13,38,998.07
2016,03,06,13,39,998.10
2016,03,06,13,40,998.10
2016,03,06,13,41,998.07
2016,03,06,13,42,998.10
2016,03,06,13,43,998.10
2016,03,06,13,44,998.24
2016,03,06,13,45,998.17
2016,03,06,13,46,998.17
2016,03,06,13,47,998.21
2016,03,06,13,48,998.24
2016,03,06,13,49,998.21
2016,03,06,13,50,998.17
2016,03,06,13,51,998.21
2016,03,06,13,52,998.24
2016,03,06,13,53,998.17
2016,03,06,13,54,998.14
2016,03,06,13,55,998.17
2016,03,06,13,56,998.17
2016,03,06,13,57,998.24
2016,03,06,13,58,998.24
2016,03,06,13,59,998.31
2016,03,06,14,00,998.27
2016,03,06,14,01,998.34
2016,03,06,14,02,998.27
2016,03,06,14,03,998.38
2016,03,06,14,04,998.44
2016,03,06,14,05,998.48
2016,03,06,14,06,998.51
2016,03,06,14,07,998.54
2016,03,06,14,08,998.54
2016,03,06,14,09,998.58
2016,03,06,14,10,998.58
2016,03,06,14,11,998.58
2016,03,06,14,12,998.61
2016,03,06,14,13,998.65
2016,03,06,14,14,998.61
2016,03,06,14,15,998.61
2016,03,06,14,16,998.61
2016,03,06,14,17,998.58
2016,03,06,14,18,998.65
2016,03,06,14,19,998.58
2016,03,06,14,20,998.61
2016,03,06,14,21,998.65
2016,03,06,14,22,998.65
2016,03,06,14,23,998.68
2016,03,06,14,24,998.71
2016,03,06,14,25,998.71
2016,03,06,14,26,998.75
2016,03,06,14,27,998.71
2016,03,06,14,28,998.78
2016,03,06,14,29,998.85
2016,03,06,14,30,998.88
2016,03,06,14,31,998.88
2016,03,06,14,32,998.88
2016,03,06,14,33,998.92
2016,03,06,14,34,998.92
2016,03,06,14,35,998.95
2016,03,06,14,36,998.95
2016,03,06,14,37,998.95
2016,03,06,14,38,998.95
2016,03,06,14,39,998.92
2016,03,06,14,40,998.95
2016,03,06,14,41,998.95
2016,03,06,14,42,998.99
2016,03,06,14,43,998.99
2016,03,06,14,44,998.99
2016,03,06,14,45,998.99
2016,03,06,14,46,998.95
2016,03,06,14,47,998.99
2016,03,06,14,48,999.02
2016,03,06,14,49,998.99
2016,03,06,14,50,998.99
2016,03,06,14,51,999.05
2016,03,06,14,52,999.02
2016,03,06,14,53,999.05
2016,03,06,14,54,999.02
2016,03,06,14,55,998.95
2016,03,06,14,56,998.99
2016,03,06,14,57,998.99
2016,03,06,14,58,998.99
2016,03,06,14,59,999.02
2016,03,06,15,00,999.02
2016,03,06,15,01,998.99
2016,03,06,15,02,998.99
2016,03,06,15,03,999.02
2016,03,06,15,04,999.02
2016,03,06,15,05,999.02
2016,03,06,15,06,998.99
2016,03,06,15,07,999.02
2016,03,06,15,08,999.02
2016,03,06,15,09,999.02
2016,03,06,15,10,999.02
2016,03,06,15,11,999.02
2016,03,06,15,12,998.99
2016,03,06,15,13,999.02
2016,03,06,15,14,999.05
2016,03,06,15,15,999.09
2016,03,06,15,16,999.05
2016,03,06,15,17,999.09
2016,03,06,15,18,999.09
2016,03,06,15,19,999.12
2016,03,06,15,20,999.09
2016,03,06,15,21,999.09
2016,03,06,15,22,999.05
2016,03,06,15,23,999.05
2016,03,06,15,24,999.02
2016,03,06,15,25,999.02
2016,03,06,15,26,998.95
2016,03,06,15,27,998.99
2016,03,06,15,28,998.95
2016,03,06,15,29,998.95
2016,03,06,15,30,998.92
2016,03,06,15,31,998.95
2016,03,06,15,32,998.92
2016,03,06,15,33,998.92
2016,03,06,15,34,998.92
2016,03,06,15,35,998.95
2016,03,06,15,36,998.95
2016,03,06,15,37,998.92
2016,03,06,15,38,998.99
2016,03,06,15,39,998.95
2016,03,06,15,40,998.95
2016,03,06,15,41,999.02
2016,03,06,15,42,999.02
2016,03,06,15,43,999.05
2016,03,06,15,44,999.05
2016,03,06,15,45,999.12
2016,03,06,15,46,999.15
2016,03,06,15,47,999.12
2016,03,06,15,48,999.22
2016,03,06,15,49,999.22
2016,03,06,15,50,999.29
2016,03,06,15,51,999.32
2016,03,06,15,52,999.36
2016,03,06,15,53,999.43
2016,03,06,15,54,999.46
2016,03,06,15,55,999.46
2016,03,06,15,56,999.53
2016,03,06,15,57,999.49
2016,03,06,15,58,999.53
2016,03,06,15,59,999.56
2016,03,06,16,00,999.66
2016,03,06,16,01,999.70
2016,03,06,16,02,999.66
2016,03,06,16,03,999.70
2016,03,06,16,04,999.70
2016,03,06,16,05,999.66
2016,03,06,16,06,999.73
2016,03,06,16,07,999.66
2016,03,06,16,08,999.66
2016,03,06,16,09,999.63
2016,03,06,16,10,999.59
2016,03,06,16,11,999.59
2016,03,06,16,12,999.59
2016,03,06,16,13,999.59
2016,03,06,16,14,999.59
2016,03,06,16,15,999.56
2016,03,06,16,16,999.59
2016,03,06,16,17,999.59
2016,03,06,16,18,999.63
2016,03,06,16,19,999.59
2016,03,06,16,20,999.59
2016,03,06,16,21,999.66
2016,03,06,16,22,999.63
2016,03,06,16,23,999.63
2016,03,06,16,24,999.70
2016,03,06,16,25,999.66
2016,03,06,16,26,999.66
2016,03,06,16,27,999.66
2016,03,06,16,28,999.66
2016,03,06,16,29,999.66
2016,03,06,16,30,999.66
2016,03,06,16,31,999.66
2016,03,06,16,32,999.63
2016,03,06,16,33,999.66
2016,03,06,16,34,999.66
2016,03,06,16,35,999.66
2016,03,06,16,36,999.59